Regional Weather Roundup
Issued by NWS

Home | Current Version | Previous Version | Graphics & Text | Print | Product List | Glossary On
Versions: 1 2 3 4 5 6 7 8 9 10 11 12 13 14 15 16 17 18 19 20 21 22 23 24 25 26 27 28 29 30 31 32 33 34 35 36 37 38 39 40 41 42 43 44 45 46 47 48 49 50
213
ASUS43 KFSD 260202
RWRSD

WEATHER ROUNDUP FOR SOUTH DAKOTA
NATIONAL WEATHER SERVICE SIOUX FALLS SD
900 PM CDT MON SEP 25 2017

NOTE: "FAIR" INDICATES FEW OR NO CLOUDS BELOW 12,000 FEET WITH NO
SIGNIFICANT WEATHER AND/OR OBSTRUCTIONS TO VISIBILITY.


SDZ001>005-009-010-012>017-260300-
NORTHWEST AND NORTH CENTRAL SOUTH DAKOTA

CITY           SKY/WX    TMP DP  RH WIND       PRES   REMARKS
FAITH            N/A     46  43  89 E3        30.11R
MOBRIDGE       CLOUDY    51  45  79 NE7       30.08S
$$

SDZ012>016-024>037-041>051-057-063-072>074-260300-
SOUTHWEST AND SOUTH CENTRAL SOUTH DAKOTA

CITY           SKY/WX    TMP DP  RH WIND       PRES   REMARKS
RAPID CTY ARPT CLOUDY    50  43  76 E8        30.10R
PIERRE         CLOUDY    51  45  79 NE5       30.10R
CUSTER         CLOUDY    41  37  86 E7        30.10R
ELLSWORTH AFB  CLOUDY    49  44  82 E5        30.09
PHILIP         CLOUDY    50  43  77 NE5       30.11R
PINE RIDGE     CLOUDY    49  44  83 SE3       30.10R
SPEARFISH      CLOUDY    46  46 100 NE5       30.10S
WINNER         CLOUDY    51  47  86 N5        30.09R
$$

SDZ004>011-016>023-039-040-260300-
NORTHEAST SOUTH DAKOTA

CITY           SKY/WX    TMP DP  RH WIND       PRES   REMARKS
ABERDEEN       CLOUDY    50  46  86 N7        30.09R
WATERTOWN      LGT RAIN  48  48 100 N9        30.05R
BROOKINGS      LGT RAIN  50  49  96 N6        30.04R FOG
SISSETON         N/A     51  48  89 N10       30.06R
$$

SDZ017-020-022-023-036>040-048>070-260300-
SOUTHEAST SOUTH DAKOTA

CITY           SKY/WX    TMP DP  RH WIND       PRES   REMARKS
SIOUX FALLS    CLOUDY    54  53  97 N9        30.03R
HURON          LGT RAIN  50  49  96 N9        30.08R FOG
CHAMBERLAIN    DRIZZLE   51  51  99 N3        30.09R
MITCHELL       LGT RAIN  51  50  96 N8        30.07R FOG
YANKTON        LGT RAIN  53  51  93 N10       30.03R
$$

ABBREVIATIONS USED IN REMARKS
   TC - TEMPERATURE IN CELSIUS
  WCI - WIND CHILL INDEX
   HX - HEAT INDEX
  VSB - VISIBILITY





USA.gov is the U.S. government's official web portal to all federal, state and local government web resources and services.